Weather History for Owatonna, MN

Change the Weather History Date:

Sunday, January 20, 2013

  Actual Average Record
Temperature  
Mean Temperature 6 °F -  
Max Temperature 12 °F 23 °F 60 °F (1999)
Min Temperature 1 °F 4 °F -34 °F (1985)
Degree Days  
Heating Degree Days 58    
Moisture  
Dew Point -6 °F    
Average Humidity 56    
Maximum Humidity 66    
Minimum Humidity 41    
Precipitation  
Precipitation 0.00 in - - ()
Sea Level Pressure  
Sea Level Pressure 30.27 in    
Wind  
Wind Speed 15 mph (WNW)    
Max Wind Speed 21 mph    
Max Gust Speed 33 mph    
Visibility 10 miles    
Events Snow    
Averages and records for this station are not official NWS values.
T = Trace of Precipitation, MM = Missing Value Source: NWS Daily Summary

Daily Weather History Graph

Daily Weather History Graph

Search for Another Location

Airport:

Trip Planner

Search our weather history database for the weather conditions in past years. The results will help you decide how hot, cold, wet, or windy it might be!

Date:

Astronomy

Jan. 20, 2013 Rise Set
Actual Time 7:41 AM CST 5:07 PM CST
Civil Twilight 7:09 AM CST 5:38 PM CST
Nautical Twilight 6:34 AM CST 6:14 PM CST
Astronomical Twilight 6:00 AM CST 6:48 PM CST
Moon 12:09 PM CST 2:13 AM CST
Length of Visible Light 10h 29m
Length of Day
9h 25m
Waxing Gibbous, 66% of the Moon is Illuminated
Jan 20
Waxing Gibbous
Jan 26
Full
Feb 3
Last Quarter
Feb 10
New
Feb 17
First Quarter

Hourly Weather History & Observations

Time (CST) Temp. Windchill Dew Point Humidity Pressure Visibility Wind Dir Wind Speed Gust Speed Precip Events Conditions
12:14 AM 6.8 °F -12.9 °F -7.6 °F 52% 30.20 in 10.0 mi WNW 19.6 mph 25.3 mph N/A   Clear
12:34 AM 5.0 °F -15.7 °F -7.6 °F 56% 30.22 in 10.0 mi WNW 20.7 mph 25.3 mph N/A   Clear
12:54 AM 5.0 °F -14.2 °F -5.8 °F 61% 30.22 in 10.0 mi WNW 17.3 mph - N/A   Clear
1:14 AM 5.0 °F -13.0 °F -5.8 °F 61% 30.22 in 10.0 mi WNW 15.0 mph 25.3 mph N/A   Clear
1:33 AM 3.2 °F -16.5 °F -5.8 °F 66% 30.23 in 5.0 mi WNW 17.3 mph - N/A   Haze
1:54 AM 3.2 °F -14.6 °F -5.8 °F 66% 30.24 in 10.0 mi WNW 13.8 mph 19.6 mph N/A   Clear
2:14 AM 3.2 °F -13.1 °F -5.8 °F 66% 30.25 in 10.0 mi WNW 11.5 mph 18.4 mph N/A   Clear
2:34 AM 3.2 °F -14.6 °F -7.6 °F 61% 30.26 in 10.0 mi WNW 13.8 mph - N/A   Clear
2:54 AM 3.2 °F -13.9 °F -7.6 °F 61% 30.27 in 10.0 mi WNW 12.7 mph 17.3 mph N/A   Clear
3:14 AM 3.2 °F -13.1 °F -7.6 °F 61% 30.27 in 10.0 mi WNW 11.5 mph 18.4 mph N/A   Clear
3:33 AM 3.2 °F -15.3 °F -7.6 °F 61% 30.28 in 10.0 mi WNW 15.0 mph 19.6 mph N/A   Clear
3:54 AM 3.2 °F -15.9 °F -7.6 °F 61% 30.29 in 10.0 mi WNW 16.1 mph - N/A   Clear
4:14 AM 3.2 °F -13.9 °F -7.6 °F 61% 30.28 in 10.0 mi NW 12.7 mph - N/A   Clear
4:34 AM 3.2 °F -14.6 °F -7.6 °F 61% 30.28 in 10.0 mi WNW 13.8 mph - N/A   Clear
4:54 AM 3.2 °F -13.1 °F -7.6 °F 61% 30.27 in 10.0 mi WNW 11.5 mph - N/A   Clear
5:14 AM 3.2 °F -11.3 °F -7.6 °F 61% 30.27 in 10.0 mi WNW 9.2 mph - N/A   Clear
5:34 AM 3.2 °F -14.6 °F -7.6 °F 61% 30.27 in 10.0 mi WNW 13.8 mph - N/A   Clear
5:54 AM 3.2 °F -13.9 °F -7.6 °F 61% 30.28 in 10.0 mi WNW 12.7 mph - N/A   Clear
6:13 AM 3.2 °F -12.2 °F -7.6 °F 61% 30.30 in 10.0 mi WNW 10.4 mph - N/A   Clear
6:34 AM 3.2 °F -12.2 °F -7.6 °F 61% 30.29 in 10.0 mi WNW 10.4 mph - N/A   Clear
6:54 AM 3.2 °F -13.1 °F -7.6 °F 61% 30.28 in 10.0 mi WNW 11.5 mph - N/A   Clear
7:14 AM 3.2 °F -13.1 °F -7.6 °F 61% 30.28 in 10.0 mi NW 11.5 mph - N/A   Clear
7:34 AM 3.2 °F -13.1 °F -7.6 °F 61% 30.28 in 10.0 mi NW 11.5 mph - N/A   Clear
7:54 AM 3.2 °F -13.1 °F -7.6 °F 61% 30.29 in 10.0 mi WNW 11.5 mph - N/A   Clear
8:13 AM 3.2 °F -12.2 °F -7.6 °F 61% 30.30 in 10.0 mi WNW 10.4 mph - N/A   Clear
8:33 AM 3.2 °F -12.2 °F -7.6 °F 61% 30.31 in 10.0 mi WNW 10.4 mph - N/A   Clear
8:54 AM 5.0 °F -10.8 °F -7.6 °F 56% 30.32 in 10.0 mi WNW 11.5 mph - N/A   Clear
9:14 AM 5.0 °F -10.0 °F -7.6 °F 56% 30.33 in 10.0 mi West 10.4 mph - N/A   Clear
9:33 AM 6.8 °F -8.6 °F -5.8 °F 56% 30.33 in 10.0 mi West 11.5 mph - N/A   Clear
9:53 AM 6.8 °F -7.8 °F -5.8 °F 56% 30.34 in 10.0 mi West 10.4 mph - N/A   Clear
10:14 AM 6.8 °F -8.6 °F -5.8 °F 56% 30.35 in 10.0 mi West 11.5 mph - N/A   Clear
10:34 AM 6.8 °F -7.8 °F -5.8 °F 56% 30.35 in 10.0 mi WNW 10.4 mph - N/A   Clear
10:54 AM 6.8 °F -9.3 °F -5.8 °F 56% 30.35 in 10.0 mi WNW 12.7 mph - N/A   Clear
11:14 AM 8.6 °F -7.7 °F -5.8 °F 52% 30.35 in 10.0 mi WNW 13.8 mph - N/A   Clear
11:34 AM 8.6 °F -7.7 °F -5.8 °F 52% 30.34 in 10.0 mi WNW 13.8 mph - N/A   Clear
11:53 AM 8.6 °F -7.0 °F -5.8 °F 52% 30.33 in 10.0 mi WNW 12.7 mph 16.1 mph N/A   Clear
12:13 PM 10.4 °F -4.1 °F -5.8 °F 48% 30.33 in 10.0 mi WNW 11.5 mph 20.7 mph N/A   Clear
12:34 PM 10.4 °F -6.0 °F -7.6 °F 44% 30.32 in 10.0 mi WNW 15.0 mph - N/A   Clear
12:54 PM 10.4 °F -4.8 °F -5.8 °F 48% 30.31 in 10.0 mi WNW 12.7 mph 18.4 mph N/A   Scattered Clouds
1:14 PM 12.2 °F -3.1 °F -7.6 °F 41% 30.30 in 10.0 mi WNW 13.8 mph - N/A   Scattered Clouds
1:54 PM 12.2 °F -3.7 °F -5.8 °F 45% 30.29 in 10.0 mi West 15.0 mph 19.6 mph N/A   Scattered Clouds
2:14 PM 12.2 °F -3.1 °F -5.8 °F 45% 30.29 in 10.0 mi WNW 13.8 mph - N/A   Mostly Cloudy
2:34 PM 12.2 °F -4.3 °F -5.8 °F 45% 30.28 in 10.0 mi West 16.1 mph - N/A   Scattered Clouds
2:54 PM 12.2 °F -4.8 °F -5.8 °F 45% 30.28 in 10.0 mi West 17.3 mph - N/A   Scattered Clouds
3:14 PM 12.2 °F -2.5 °F -5.8 °F 45% 30.28 in 10.0 mi WNW 12.7 mph 19.6 mph N/A   Scattered Clouds
3:34 PM 12.2 °F -3.1 °F -5.8 °F 45% 30.27 in 10.0 mi West 13.8 mph 20.7 mph N/A   Scattered Clouds
3:54 PM 12.2 °F -3.7 °F -5.8 °F 45% 30.26 in 10.0 mi West 15.0 mph 18.4 mph N/A   Clear
4:14 PM 12.2 °F -4.3 °F -5.8 °F 45% 30.26 in 10.0 mi West 16.1 mph - N/A   Scattered Clouds
4:34 PM 12.2 °F -4.8 °F -4.0 °F 48% 30.26 in 10.0 mi WNW 17.3 mph - N/A   Mostly Cloudy
4:54 PM 12.2 °F -4.3 °F -2.2 °F 53% 30.26 in 10.0 mi West 16.1 mph - N/A   Mostly Cloudy
5:14 PM 10.4 °F -5.4 °F -2.2 °F 57% 30.26 in 10.0 mi WNW 13.8 mph - N/A   Mostly Cloudy
5:34 PM 10.4 °F -6.6 °F -0.4 °F 62% 30.25 in 10.0 mi WNW 16.1 mph 19.6 mph N/A   Overcast
5:53 PM 10.4 °F -7.7 °F -2.2 °F 57% 30.25 in 10.0 mi NW 18.4 mph 23.0 mph N/A   Overcast
6:14 PM 10.4 °F -6.0 °F -0.4 °F 62% 30.25 in 7.0 mi WNW 15.0 mph - N/A   Overcast
6:34 PM 10.4 °F -6.0 °F -0.4 °F 62% 30.25 in 10.0 mi WNW 15.0 mph - N/A   Overcast
6:54 PM 10.4 °F -5.4 °F -0.4 °F 62% 30.25 in 10.0 mi West 13.8 mph - N/A   Overcast
7:14 PM 10.4 °F -6.6 °F -2.2 °F 57% 30.25 in 10.0 mi West 16.1 mph - N/A   Overcast
7:34 PM 10.4 °F -6.6 °F -0.4 °F 62% 30.25 in 4.0 mi WNW 16.1 mph 19.6 mph N/A Snow Light Snow
7:54 PM 8.6 °F -10.5 °F -4.0 °F 57% 30.24 in 10.0 mi WNW 19.6 mph 28.8 mph N/A   Scattered Clouds
8:14 PM 8.6 °F -10.0 °F -2.2 °F 62% 30.24 in 10.0 mi WNW 18.4 mph 25.3 mph N/A   Clear
8:34 PM 8.6 °F -11.0 °F -2.2 °F 62% 30.24 in 5.0 mi WNW 20.7 mph 24.2 mph N/A   Haze
8:54 PM 6.8 °F -13.4 °F -5.8 °F 56% 30.23 in 10.0 mi WNW 20.7 mph 26.5 mph N/A   Clear
9:14 PM 6.8 °F -11.8 °F -7.6 °F 52% 30.23 in 10.0 mi WNW 17.3 mph - N/A   Clear
9:34 PM 6.8 °F -10.7 °F -7.6 °F 52% 30.23 in 10.0 mi WNW 15.0 mph - N/A   Clear
9:54 PM 5.0 °F -15.2 °F -7.6 °F 56% 30.23 in 10.0 mi WNW 19.6 mph 23.0 mph N/A   Clear
10:14 PM 5.0 °F -14.2 °F -7.6 °F 56% 30.24 in 10.0 mi WNW 17.3 mph - N/A   Clear
10:34 PM 3.2 °F -17.1 °F -7.6 °F 61% 30.24 in 10.0 mi WNW 18.4 mph 24.2 mph N/A   Clear
10:54 PM 3.2 °F -17.1 °F -9.4 °F 56% 30.24 in 10.0 mi WNW 18.4 mph 27.6 mph N/A   Clear
11:14 PM 1.4 °F -20.5 °F -11.2 °F 56% 30.24 in 10.0 mi WNW 20.7 mph 33.4 mph N/A   Clear
11:34 PM 1.4 °F -19.9 °F -9.4 °F 61% 30.25 in 10.0 mi WNW 19.6 mph 26.5 mph N/A   Clear
11:54 PM 1.4 °F -17.6 °F -9.4 °F 61% 30.24 in 7.0 mi WNW 15.0 mph - N/A   Clear